Stations météo

réclame
Mon MeteoGroup
Kloevsjoehoejden, Suède (2325): Température de l'air & dewpoint: 16.06.2018 19:00:00 - 22.06.2018 19:00:00 (CEST)Kloevsjoehoejden, Suède (2325): Vitesse du vent & gusts: 16.06.2018 19:00:00 - 22.06.2018 19:00:00 (CEST)Kloevsjoehoejden, Suède (2325): Direction du vent: 16.06.2018 19:00:00 - 22.06.2018 19:00:00 (CEST)Kloevsjoehoejden, Suède (2325): reduced air pressure: 16.06.2018 19:00:00 - 22.06.2018 19:00:00 (CEST)Kloevsjoehoejden, Suède (2325): visibility: 16.06.2018 19:00:00 - 22.06.2018 19:00:00 (CEST)Kloevsjoehoejden, Suède (2325): Quantités de précipitations: 16.06.2018 19:00:00 - 22.06.2018 19:00:00 (CEST)
Date & Time tt [°C] td [°C] ff [km/h] ff [knt] fx [km/h] fx [knt] dd ppp [hPa] vv [km] rr [mm]
22.06.2018 19:00:00 - - - - - - - - - -
22.06.2018 18:00:00 6,6 1,3 35 19 62 33 NW 1003,9 50 0,0
22.06.2018 17:00:00 8,0 1,6 33 18 63 34 NW 1003,0 48 0,0
22.06.2018 16:00:00 7,3 1,2 33 18 68 37 NW 1002,9 50 0,0
22.06.2018 15:00:00 7,4 0,8 39 21 71 39 NNW 1002,4 42 0,0
22.06.2018 14:00:00 7,7 1,7 40 22 64 35 NNW 1002,1 43 0,0
22.06.2018 13:00:00 5,3 1,2 32 17 60 32 NNW 1002,9 50 0,0
22.06.2018 12:00:00 4,6 1,8 33 18 66 36 NNW 1003,2 36 0,1
22.06.2018 11:00:00 3,8 1,3 32 18 56 30 NNW 1003,2 49 0,0
22.06.2018 10:00:00 3,6 1,6 30 16 60 32 NNW 1003,1 32 0,2
22.06.2018 09:00:00 3,6 1,3 36 20 69 37 NNW 1002,6 33 0,0
22.06.2018 08:00:00 4,3 0,6 31 17 61 33 NNW 1002,4 50 0,0
22.06.2018 07:00:00 3,8 1,8 32 17 53 29 NW 1003,1 23 0,0
22.06.2018 06:00:00 4,4 1,8 32 17 57 31 NNW 1003,3 50 0,0
22.06.2018 05:00:00 3,9 1,6 30 16 58 31 NNW 1003,8 50 0,0
22.06.2018 04:00:00 3,6 1,2 31 17 63 34 NNW 1004,2 50 0,0
22.06.2018 03:00:00 3,2 1,1 32 18 62 34 NNW 1004,6 50 0,0
22.06.2018 02:00:00 3,4 1,1 36 19 59 32 NNW 1004,2 50 0,0
22.06.2018 01:00:00 3,7 1,6 32 18 59 32 NNW 1004,7 50 0,0
22.06.2018 00:00:00 4,4 1,9 32 17 50 27 NNW 1004,5 50 0,0
21.06.2018 23:00:00 5,2 2,4 25 13 57 31 NNW 1004,6 50 0,0
21.06.2018 22:00:00 5,9 2,4 31 17 53 29 NNW 1004,1 50 0,1
21.06.2018 21:00:00 7,0 1,7 27 14 50 27 NNW 1003,8 50 0,0
21.06.2018 20:00:00 7,9 1,7 24 13 44 24 N 1003,5 50 0,0
21.06.2018 19:00:00 8,3 2,1 24 13 41 22 N 1003,4 45 0,0
21.06.2018 18:00:00 9,7 1,3 23 12 42 23 N 1002,8 50 0,0
21.06.2018 17:00:00 10,0 2,4 20 11 42 23 NNE 1002,6 50 0,0
21.06.2018 16:00:00 10,0 2,1 16 9 34 19 NNE 1002,9 47 0,0
21.06.2018 15:00:00 8,4 2,8 13 7 32 18 NNE 1003,8 50 0,1
21.06.2018 14:00:00 8,8 3,2 14 7 29 16 N 1003,8 45 0,2
21.06.2018 13:00:00 9,2 1,8 12 7 25 14 NNE 1003,7 50 0,0
21.06.2018 12:00:00 7,3 1,6 16 9 26 14 N 1004,9 47 0,0
21.06.2018 11:00:00 6,3 2,2 12 6 24 13 N 1005,3 50 0,0
21.06.2018 10:00:00 5,5 3,0 9 5 24 13 N 1005,7 50 0,0
21.06.2018 09:00:00 5,3 2,5 14 7 24 13 N 1005,8 50 0,0
21.06.2018 08:00:00 4,4 3,4 10 5 21 11 N 1006,3 49 0,0
21.06.2018 07:00:00 4,1 3,1 7 4 13 7 NNW 1006,7 38 0,1
21.06.2018 06:00:00 3,9 3,2 7 4 15 8 N 1006,7 44 0,1
21.06.2018 05:00:00 3,9 3,2 6 4 14 8 NNW 1006,8 44 0,0
21.06.2018 04:00:00 3,9 2,6 8 4 14 8 N 1007,1 50 0,0
21.06.2018 03:00:00 4,0 2,8 8 4 15 8 N 1007,2 50 0,0
21.06.2018 02:00:00 4,4 2,7 8 4 14 8 NNE 1007,3 37 0,1
21.06.2018 01:00:00 4,8 2,5 7 4 11 6 NNE 1007,4 40 0,0
21.06.2018 00:00:00 5,5 2,1 7 4 20 11 N 1007,3 50 0,0
20.06.2018 23:00:00 5,9 2,0 13 7 24 13 N 1006,8 50 0,0
20.06.2018 22:00:00 6,3 2,4 11 6 20 11 N 1006,5 50 0,1
20.06.2018 21:00:00 7,1 1,6 11 6 19 10 NNE 1006,1 50 0,0
20.06.2018 20:00:00 7,9 1,5 11 6 22 12 NNE 1005,7 50 0,0
20.06.2018 19:00:00 9,0 0,9 10 5 21 11 NNE 1005,5 50 0,0
20.06.2018 18:00:00 9,1 1,5 11 6 23 12 N 1005,4 50 0,0
20.06.2018 17:00:00 11,0 -0,5 5 3 24 13 N 1004,7 50 0,0
20.06.2018 16:00:00 13,6 -2,0 12 7 26 14 WSW 1003,9 42 0,0
20.06.2018 15:00:00 13,3 -3,1 12 6 30 16 WSW 1004,3 47 0,0
20.06.2018 14:00:00 13,0 -2,5 8 4 30 16 W 1004,7 46 0,0
20.06.2018 13:00:00 12,4 -3,0 14 8 38 20 WSW 1005,2 47 0,0
20.06.2018 12:00:00 13,3 -2,2 16 9 36 19 WSW 1004,8 39 0,0
20.06.2018 11:00:00 10,1 -3,9 17 9 41 22 WSW 1006,0 50 0,0
20.06.2018 10:00:00 10,1 -3,6 20 11 37 20 WSW 1005,9 50 0,0
20.06.2018 09:00:00 9,2 -2,7 16 8 32 17 WSW 1006,1 46 0,0
20.06.2018 08:00:00 8,2 -3,3 18 10 42 23 WSW 1005,7 49 0,0
20.06.2018 07:00:00 6,7 -3,5 24 13 45 24 WSW 1005,8 50 0,0
20.06.2018 06:00:00 4,9 -3,6 28 15 41 22 W 1005,9 50 0,0
20.06.2018 05:00:00 5,3 -3,0 23 12 49 26 WSW 1005,6 50 0,0
20.06.2018 04:00:00 5,0 -3,1 28 15 48 26 W 1005,2 50 0,0
20.06.2018 03:00:00 5,2 -3,1 27 15 50 27 W 1004,6 50 0,0
20.06.2018 02:00:00 5,8 -2,8 25 13 49 26 W 1003,9 50 0,0
20.06.2018 01:00:00 6,5 -2,7 29 15 48 26 W 1003,5 50 0,0
20.06.2018 00:00:00 7,1 -3,2 24 13 48 26 W 1002,8 50 0,0
19.06.2018 23:00:00 8,4 -2,6 24 13 43 23 W 1002,1 50 0,0
19.06.2018 22:00:00 9,9 -1,8 21 11 49 27 W 1000,9 50 0,0
19.06.2018 21:00:00 11,3 -2,2 28 15 49 26 W 999,4 50 0,0
19.06.2018 20:00:00 12,0 -1,2 22 12 41 22 W 998,7 50 0,0
19.06.2018 19:00:00 12,8 1,8 17 9 42 23 WNW 997,7 50 0,0
19.06.2018 18:00:00 12,0 1,6 19 10 62 33 WNW 997,4 50 0,0
19.06.2018 17:00:00 14,2 0,4 28 15 62 33 W 996,0 50 0,0
19.06.2018 16:00:00 12,6 1,0 28 15 61 33 WSW 996,5 50 0,0
19.06.2018 15:00:00 13,4 -0,3 32 17 56 30 WSW 996,1 47 0,0
19.06.2018 14:00:00 12,8 0,8 35 19 68 37 W 995,9 50 0,0
19.06.2018 13:00:00 11,7 -0,5 32 17 54 29 W 996,0 50 0,0
19.06.2018 12:00:00 11,9 0,0 24 13 45 24 WNW 995,6 41 0,0
19.06.2018 11:00:00 8,5 3,1 21 12 42 23 NW 996,5 50 0,0
19.06.2018 10:00:00 9,2 3,2 18 10 50 27 WNW 995,5 50 0,0
19.06.2018 09:00:00 8,6 3,6 20 11 40 22 WNW 995,3 50 0,0
19.06.2018 08:00:00 8,3 6,8 18 10 37 20 W 995,0 50 0,0
19.06.2018 07:00:00 7,4 7,0 20 11 36 19 W 995,4 50 0,6
19.06.2018 06:00:00 6,8 6,7 10 5 24 13 SW 995,8 11 1,3
19.06.2018 05:00:00 6,8 6,4 20 11 38 21 W 996,4 5 2,7
19.06.2018 04:00:00 8,6 8,6 14 8 26 14 SSW 996,6 1,7 0,3
19.06.2018 03:00:00 8,8 8,1 13 7 27 15 SSW 997,7 46 0,0
19.06.2018 02:00:00 8,6 7,9 14 8 30 16 SW 998,8 50 0,0
19.06.2018 01:00:00 9,1 7,2 16 9 31 17 SW 999,9 50 0,0
19.06.2018 00:00:00 9,3 7,4 13 7 29 16 SW 1000,8 50 0,0
18.06.2018 23:00:00 9,7 7,5 19 10 39 21 SW 1001,7 50 0,0
18.06.2018 22:00:00 10,5 7,2 19 10 38 21 SW 1001,3 50 0,0
18.06.2018 21:00:00 11,5 6,4 20 11 39 21 SW 1001,5 50 0,0
18.06.2018 20:00:00 12,5 6,3 16 9 36 20 SW 1001,7 50 0,0
18.06.2018 19:00:00 12,7 5,8 19 11 41 22 SW 1001,8 50 0,0
18.06.2018 18:00:00 13,1 5,3 19 11 43 23 SSW 1002,0 50 0,0
18.06.2018 17:00:00 15,3 4,6 23 13 51 28 SW 1001,5 50 0,0
18.06.2018 16:00:00 14,2 7,5 21 12 51 28 SSW 1002,3 48 0,0
18.06.2018 15:00:00 14,3 6,9 20 11 51 28 SW 1002,6 47 0,0
18.06.2018 14:00:00 14,4 6,5 17 9 39 21 SW 1003,0 50 0,0
18.06.2018 13:00:00 14,2 8,2 19 10 35 19 SSW 1003,1 41 0,0
18.06.2018 12:00:00 13,0 7,0 16 9 28 15 SSW 1003,8 50 0,0
18.06.2018 11:00:00 13,2 8,7 14 8 27 15 WSW 1003,8 50 0,0
18.06.2018 10:00:00 11,5 8,0 17 9 29 16 W 1004,5 46 0,0
18.06.2018 09:00:00 8,9 7,5 13 7 27 15 W 1005,5 50 0,0
18.06.2018 08:00:00 9,6 8,4 16 9 26 14 W 1004,7 50 0,0
18.06.2018 07:00:00 8,9 8,6 11 6 19 10 W 1005,0 50 0,0
18.06.2018 06:00:00 7,5 7,5 10 5 17 9 W 1005,7 48 0,1
18.06.2018 05:00:00 6,6 6,6 7 4 16 8 NW 1006,2 20 0,6
18.06.2018 04:00:00 6,9 6,9 8 5 14 7 NNW 1006,3 0,2 1,0
18.06.2018 03:00:00 6,9 6,9 8 4 14 8 NNW 1006,7 0,1 2,0
18.06.2018 02:00:00 6,9 6,9 4 2 10 5 NNW 1007,3 0,2 2,5
18.06.2018 01:00:00 6,8 6,8 5 3 11 6 NNE 1007,9 0,1 2,0
18.06.2018 00:00:00 6,9 6,9 6 4 22 12 E 1008,5 0,1 1,4
17.06.2018 23:00:00 7,0 7,0 10 6 26 14 ESE 1009,2 0,1 1,3
17.06.2018 22:00:00 6,8 6,8 13 7 31 17 SE 1010,1 0,4 0,8
17.06.2018 21:00:00 7,2 7,2 16 8 35 19 SE 1010,6 0,2 1,1
17.06.2018 20:00:00 8,0 8,0 16 8 34 19 SE 1010,8 0,2 1,8
17.06.2018 19:00:00 8,0 8,0 21 11 35 19 SSE 1011,4 0,1 1,6
17.06.2018 18:00:00 8,4 8,4 18 10 41 22 SE 1011,8 0,1 1,0
17.06.2018 17:00:00 8,5 8,5 20 11 37 20 SSE 1012,0 0,5 0,2
17.06.2018 16:00:00 8,6 8,6 21 11 40 22 SSE 1012,3 2,8 0,3
17.06.2018 15:00:00 8,4 8,4 21 11 40 22 SSE 1012,7 0,1 0,5
17.06.2018 14:00:00 8,0 8,0 17 9 36 19 SE 1013,2 0,1 0,0
17.06.2018 13:00:00 7,8 7,8 17 9 39 21 SE 1013,6 0,1 0,5
17.06.2018 12:00:00 7,7 7,7 18 10 29 16 SE 1014,3 0,1 1,6
17.06.2018 11:00:00 7,4 7,1 14 8 26 14 SSE 1014,9 7 1,0
17.06.2018 10:00:00 8,5 7,1 15 8 23 13 SSE 1014,7 14 0,2
17.06.2018 09:00:00 9,0 5,9 13 7 25 13 SSE 1014,5 44 0,0
17.06.2018 08:00:00 9,1 5,8 10 6 20 11 S 1014,7 41 0,0
17.06.2018 07:00:00 9,2 4,4 9 5 19 10 S 1014,9 50 0,0
17.06.2018 06:00:00 9,0 4,0 7 4 11 6 SSE 1015,3 50 0,0
17.06.2018 05:00:00 8,4 3,6 7 4 10 5 SSE 1015,7 50 0,0
17.06.2018 04:00:00 8,1 2,5 2 1 6 4 E 1015,9 50 0,0
17.06.2018 03:00:00 8,7 3,5 5 3 7 4 E 1015,8 50 0,0
17.06.2018 02:00:00 8,9 3,5 5 3 9 5 SSE 1015,8 50 0,0
17.06.2018 01:00:00 10,2 3,0 4 2 19 10 SSW 1015,4 50 0,0
17.06.2018 00:00:00 10,9 3,4 9 5 17 9 SW 1015,3 50 0,0
16.06.2018 23:00:00 11,5 2,8 8 4 18 10 S 1015,0 50 0,0
16.06.2018 22:00:00 11,5 1,2 4 2 10 5 SE 1014,7 50 0,0
16.06.2018 21:00:00 13,1 -0,5 6 3 14 8 ESE 1013,9 50 0,0
16.06.2018 20:00:00 14,1 -0,4 8 5 19 11 NE 1013,3 50 0,0
16.06.2018 19:00:00 16,2 -2,8 7 4 16 9 W 1012,2 50 0,0

tt = Température de l'air
td = dewpoint
ff = Vitesse du vent
fx = gusts
dd = Direction du vent
ppp = reduced air pressure
vv = visibility
rr = Quantités de précipitations

stations d'obs. à proximité